Location: Del Amo
(33.8464°N, 118.2104°W)
Time: 21:28:02
(UTC+00:00)

Courier 1B Rocket - Pass Details

Date: 18 September 2024
Orbit: 920 x 1201 km, 28.3° (Epoch: 13 October)

Event Time Altitude Azimuth Distance (km) Brightness Sun altitude
Rises 02:42:26 0° 269° (W) 3,779 10.1 -10.5°
Reaches altitude 10° 02:45:15 10° 262° (W) 2,869 8.8 -11.1°
Maximum altitude 02:51:41 39° 196° (SSW) 1,607 6.2 -12.4°
Enters shadow 02:58:01 12° 133° (SE) 2,886 6.9 -13.7°
